Regional Weather Roundup
Issued by NWS

Home | Current Version | Previous Version | Graphics & Text | Print | Product List | Glossary Off
Versions: 1 2 3 4 5 6 7 8 9 10 11 12 13 14 15 16 17 18 19 20 21 22 23 24 25 26 27 28 29 30 31 32 33 34 35 36 37 38 39 40 41 42 43 44 45 46 47 48 49 50

000
ASUS43 KMPX 241210
RWRMN
WEATHER ROUNDUP FOR MINNESOTA
NATIONAL WEATHER SERVICE TWIN CITIES/CHANHASSEN MN
700 AM CDT THU APR 24 2014


NOTE: "FAIR" INDICATES FEW OR NO CLOUDS BELOW 12,000 FEET WITH NO
SIGNIFICANT WEATHER AND/OR OBSTRUCTIONS TO VISIBILITY. N/A MEANS
CURRENT SKY AND/OR WEATHER CONDITIONS ARE NOT AVAILABLE.

MNZ060>063-068>070-241300-
   Twin Cities Metro

CITY           SKY/WX    TMP DP  RH WIND       PRES   REMARKS
TWIN CITIES    RAIN      41  40  96 E18       29.81S FOG
6HR MIN TEMP:  41; 6HR MAX TEMP:  44; 6HR PCP:  0.12;

ST PAUL        LGT RAIN  41  38  89 E16       29.83S FOG
CRYSTAL        LGT RAIN  42  38  85 E10G20    29.81R FOG
BLAINE         LGT RAIN  43  41  93 E14       29.82R
EDEN PRAIRIE   LGT RAIN  42  39  89 E14       29.79S FOG
6HR MIN TEMP:  42; 6HR MAX TEMP:  45; 6HR PCP:  0.10;

LAKEVILLE      LGT RAIN  37  37 100 E15       29.79F
SOUTH ST PAUL  LGT RAIN  43  42  95 SE9G20    29.82S
LAKE ELMO      LGT RAIN  39  37  93 SE10      29.85R
$$
MNZ001>005-007-008-013>017-022>024-027-028-241300-
   Northwest Minnesota

CITY           SKY/WX    TMP DP  RH WIND       PRES   REMARKS
BEMIDJI        LGT RAIN  35  34  98 SE9       29.82S WCI  27
HALLOCK        CLOUDY    39  37  93 SE13      29.79S
ROSEAU         CLOUDY    37  34  87 SE10G18   29.83F
WARROAD        CLOUDY    37  34  87 SE9       29.86R
THIEF RVR FALL CLOUDY    37  34  87 E13       29.80S
CROOKSTON      MIX PCPN  37  37 100 SE10      29.79S
FOSSTON        CLOUDY    36  36 100 SE9G16    29.79F
DETROIT LAKES  CLOUDY    37  37 100 SE10      29.77F
MOORHEAD       CLOUDY    43  43 100 S5        29.77S
PARK RAPIDS    CLOUDY    38  37  97 E9        29.80S FOG
$$
MNZ006-009>011-018-025>026-241300-
   North Central Minnesota

CITY           SKY/WX    TMP DP  RH WIND       PRES   REMARKS
BAUDETTE       CLOUDY    37  35  92 SE8       29.88R
FLAG ISLAND    DRIZZLE   36  34  93 SE7G17    29.87R
INTL FALLS     CLOUDY    38  35  89 SE12      29.89F
6HR MIN TEMP:  37; 6HR MAX TEMP:  40; 6HR PCP:  0.02;

WASKISH        CLOUDY    36  36 100 E10       29.86R
BIG FORK       CLOUDY    37  34  87 SE9       29.88
LONGVILLE      CLOUDY    37  36  93 E6        29.84S
GRAND RAPIDS   CLOUDY    36  34  93 SE7       29.87S
CRANE LAKE     DRIZZLE   36  36 100 SE5       29.95S
ORR            CLOUDY    36  34  93 SE6       29.90R
COOK           CLOUDY    37  36  93 SE7       29.92S
$$
MNZ012-019>021-037-241300-
   Northeast Minnesota

CITY           SKY/WX    TMP DP  RH WIND       PRES   REMARKS
DULUTH         LGT RAIN  35  33  92 E17       29.92F FOG     WCI  25
6HR MIN TEMP:  35; 6HR MAX TEMP:  37; 6HR PCP:  0.08;

ELY            CLOUDY    36  34  93 SE12      29.95S
HIBBING        CLOUDY    37  34  89 SE10      29.90F FOG
EVELETH        CLOUDY    36  36 100 SE12G20   29.92S
DULUTH HARBOR  CLOUDY    34  32  93 NE10      29.97S FOG     WCI  26
TWO HARBORS    DRIZZLE   36  30  80 E12G17    29.95F
SILVER BAY     DRIZZLE   34  34 100 E6        29.98S WCI  29
GRAND MARAIS     N/A     37  29  72 NE3       30.04F
G MARAIS ARPRT CLOUDY    36  28  75 SE5       30.01S
$$
MNZ029>031-032-039>041-046>048-054>057-064-241300-
   West Central Minnesota

CITY           SKY/WX    TMP DP  RH WIND       PRES   REMARKS
FERGUS FALLS   CLOUDY    41  36  81 SE8       29.73F
WHEATON        CLOUDY    43  39  87 E3        29.76S
MORRIS         CLOUDY    41  37  87 E8        29.73S
ALEXANDRIA     CLOUDY    40  37  89 E9        29.76F
ELBOW LAKE     CLOUDY    41  37  87 E9        29.74S
WADENA         CLOUDY    39  36  87 E8        29.78F
GLENWOOD       CLOUDY    39  37  93 E12       29.75F
APPLETON       CLOUDY    43  39  87 E7        29.72F FOG
BENSON         CLOUDY    43  39  87 SE8       29.73F FOG
ORTONVILLE     CLOUDY    41  37  87 E7        29.72F
MADISON        DRIZZLE   45  43  93 NE3       29.71F
WILLMAR        MIX PCPN  43  39  87 E13       29.74S
$$
MNZ033>034-036-042>043-049>051-058-059-241300-
   Central Minnesota

CITY           SKY/WX    TMP DP  RH WIND       PRES   REMARKS
ST CLOUD       CLOUDY    43  39  86 E7        29.80R
6HR MIN TEMP:  42; 6HR MAX TEMP:  43;

SAUK CENTRE    CLOUDY    40  37  90 E9        29.77S
PAYNESVILLE    CLOUDY    41  39  91 E10G16    29.77R FOG
AITKIN         CLOUDY    41  36  81 E6        29.84R
PINE RIVER     CLOUDY    37  37 100 E12       29.85F
BRAINERD       CLOUDY    43  36  76 SE8G16    29.83S
STAPLES        CLOUDY    39  37  93 E3        29.79F
LONG PRAIRIE   CLOUDY    39  37  93 E9        29.78S
LITTLE FALLS   CLOUDY    39  36  87 E12       29.80S FOG
LITCHFIELD     DRIZZLE   43  43 100 E15       29.76S
BUFFALO        RAIN      41  38  91 E9G17     29.80F
MAPLE LAKE     DRIZZLE   42  40  95 E7        29.80S
$$
MNZ037-044-045-052-053-241300-
   East Central Minnesota

CITY           SKY/WX    TMP DP  RH WIND       PRES   REMARKS
PRINCETON      DRIZZLE   43  39  87 E8G16     29.82S
MORA           CLOUDY    37  36  93 E9        29.86F FOG
CAMBRIDGE      LGT RAIN  43  36  75 E9        29.82S
RUSH CITY      CLOUDY    40  37  89 SE9       29.86S
MOOSE LAKE     CLOUDY    37  36  93 E7        29.87S FOG
HINCKLEY       CLOUDY    39  37  93 E14G20    29.88R FOG
CLOQUET        LGT RAIN  36  34  93 E9G17     29.91S
MCGREGOR       CLOUDY    37  36  93 E8        29.87S
$$
MNZ071>073-080-081-089-090-097-098-241300-
   Southwest Minnesota

CITY           SKY/WX    TMP DP  RH WIND       PRES   REMARKS
MONTEVIDEO     DRIZZLE   43  43 100 SE6       29.72F
GRANITE FALLS  DRIZZLE   42  40  93 E10       29.71F
CANBY          RAIN      42  41  98 CALM      29.71F
MARSHALL       CLOUDY    43  39  87 SE5       29.69S
REDWOOD FALLS  LGT RAIN  43  41  93 E12       29.69F FOG
OLIVIA         LGT RAIN  43  39  87 E12       29.71S
PIPESTONE      DRIZZLE   43  43 100 CALM      29.66S
WINDOM         RAIN      43  43 100 E12       29.66F
WORTHINGTON    CLOUDY    43  36  75 SE15      29.66F
JACKSON        LGT RAIN  43  39  87 E13       29.66F
TRACY          LGT RAIN  44  43  95 SE6       29.68S
SLAYTON        LGT RAIN  42  42  99 SE14      29.68R
$$
MNZ065>067-074>077-082>085-091>093-241300-
   South Central Minnesota

CITY           SKY/WX    TMP DP  RH WIND       PRES   REMARKS
MANKATO        CLOUDY    43  39  87 SE14      29.74F
NEW ULM        LGT RAIN  43  43 100 E8        29.72F
ST JAMES       LGT RAIN  45  41  87 E8        29.71F
FAIRMONT       CLOUDY    43  37  81 SE16      29.70F
GLENCOE        LGT RAIN  42  39  89 E15       29.76F
FARIBAULT      LGT RAIN  43  37  81 E14       29.78S
OWATONNA       CLOUDY    41  37  87 SE22G33   29.75F
WASECA         LGT RAIN  41  36  81 SE17G26   29.75F
ALBERT LEA     DRIZZLE   41  41 100 SE20G26   29.73F
$$
MNZ078>079-086>088-094>096-241300-
   Southeast Minnesota

CITY           SKY/WX    TMP DP  RH WIND       PRES   REMARKS
ROCHESTER      RAIN      39  36  89 SE20      29.79F FOG
6HR MIN TEMP:  39; 6HR MAX TEMP:  44; 6HR PCP:  0.65;

RED WING       HVY RAIN  39  37  93 SE17G23   29.80S
STANTON        RAIN      41  37  87 E13       29.78S
DODGE CENTER   RAIN      43  41  93 SE20      29.78F
WINONA         RAIN      37  37 100 SE10      29.87S
AUSTIN         RAIN      41  39  93 SE18G28   29.77F
PRESTON        RAIN      39  37  93 SE13      29.84S
$$
ABBREVIATIONS USED IN REMARKS
   TC - TEMPERATURES IN CELSIUS
  WCI - WIND CHILL INDEX
   HX - HEAT INDEX
  VSB - VISIBILITY
$$


USA.gov is the U.S. government's official web portal to all federal, state and local government web resources and services.